Location: Unspecified
(0.0000°N, 0.0000°E)
Time: 16:29:13
(UTC+00:00)

LEMUR 2 DEMBITZ - Visible Passes

Search period start: 14 January 2026 00:00
Search period end: 24 January 2026 00:00
Orbit: 488 x 497 km, 97.4° (Epoch: 13 January)

Date Brightness Start Highest point End Pass type
(mag) Time Alt. Az. Time Alt. Az. Time Alt. Az.
14 Jan ? 05:39:12 10° S 05:42:49 64° W 05:46:25 10° NNW visible
15 Jan ? 05:17:14 10° SSE 05:20:47 49° ENE 05:24:19 10° N visible
16 Jan ? 04:55:54 10° SE 04:58:44 21° E 05:01:32 10° NNE visible
19 Jan ? 05:22:09 10° SSE 05:25:45 61° E 05:29:20 10° N visible
20 Jan ? 05:00:32 10° SE 05:03:36 25° E 05:06:38 10° NNE visible
21 Jan ? 04:40:13 10° E 04:41:25 11° ENE 04:42:37 10° ENE visible
23 Jan ? 05:26:40 10° SSE 05:30:18 75° E 05:33:56 10° N visible
